Regional Weather Roundup
Issued by NWS

Home | Current Version | Previous Version | Graphics & Text | Print | Product List | Glossary On
Versions: 1 2 3 4 5 6 7 8 9 10 11 12 13 14 15 16 17 18 19 20 21 22 23 24 25 26 27 28 29 30 31 32 33 34 35 36 37 38 39 40 41 42 43 44 45 46 47 48 49 50
000
ASUS43 KOAX 020510
RWRNE

WEATHER ROUNDUP FOR NEBRASKA
NATIONAL WEATHER SERVICE OMAHA NE
1200 AM CDT THU OCT 02 2014

NOTES: SATELLITE DATA IS BEING USED TO AUGMENT CLOUD COVER ABOVE
       12000 FEET.
       "FAIR" INDICATES FEW OR NO CLOUDS BELOW 12,000 FEET WITH NO
       SIGNIFICANT WEATHER AND/OR OBSTRUCTIONS TO VISIBILITY.

  * THESE STATIONS DO NOT REPORT WEATHER SUCH AS RAIN...SNOW OR FOG.

NEZ001>004-019>022-054>056-020600-
NEBRASKA PANHANDLE

CITY           SKY/WX    TMP DP  RH WIND       PRES   REMARKS
SCOTTSBLUFF    PTCLDY    44  43  96 CALM      30.03R
ALLIANCE       CLOUDY    46  45  96 NE5       30.01R
CHADRON        CLOUDY    49  47  93 CALM      30.01R
KIMBALL        CLEAR     42  41  97 NW9       30.02R
SIDNEY         MOCLDY    44  42  93 N10       30.01F
$$

NEZ057>060-069>072-079>082-020600-
SOUTHWEST NEBRASKA

CITY           SKY/WX    TMP DP  RH WIND       PRES   REMARKS
NORTH PLATTE   LGT RAIN  53  50  89 N17G26    29.92F
IMPERIAL       LGT RAIN  50  45  83 N16G26    29.96R
LEXINGTON      MOCLDY    63  55  74 E6        29.81R
MCCOOK         MOCLDY    54  49  83 N24G32    29.87R
OGALLALA       CLOUDY    52  49  90 N18G24    29.94F
$$

NEZ005>010-023>029-035>040-094-020600-
NORTH CENTRAL NEBRASKA

CITY           SKY/WX    TMP DP  RH WIND       PRES   REMARKS
VALENTINE      RAIN      51  49  92 W5        29.97R FOG
AINSWORTH      RAIN      51  50  95 NW12      29.94R
BROKEN BOW     TSTM      59  52  77 NW13      29.87R
O`NEILL        PTCLDY    57  51  81 N12       29.88S
ORD            TSTM      59  53  80 E5        29.83R
THEDFORD       RAIN      52  51  95 N17G23    29.96R
$$

NEZ041-046>049-061>064-073>077-083>087-020600-
SOUTH CENTRAL NEBRASKA

CITY           SKY/WX    TMP DP  RH WIND       PRES   REMARKS
GRAND ISLAND   MOCLDY    60  55  83 E6        29.80F
AURORA         MOCLDY    60  58  94 NE6       29.79F
HASTINGS       PTCLDY    60  57  89 NE8       29.78F
HEBRON         PTCLDY    63  58  84 E5        29.77F
HOLDREGE       PTCLDY    59  56  88 E9        29.77F
KEARNEY *      MOCLDY    61  54  77 NE12      29.79F
YORK           MOCLDY    64  55  72 CALM      29.80F
$$

NEZ011>018-030>034-042>045-020600-
NORTHEAST NEBRASKA

CITY           SKY/WX    TMP DP  RH WIND       PRES   REMARKS
NORFOLK        CLOUDY    62  54  74 N7        29.82F
ALBION         RAIN      60  53  77 N5        29.83S
BLAIR          MOCLDY    66  63  89 E3        29.80S
COLUMBUS *     CLOUDY    61  57  88 MISG      29.83S
FREMONT        MOCLDY    65  63  91 W8        29.82R
TEKAMAH        CLOUDY    64  61  90 NE3       29.79S
WAYNE          CLOUDY    59  55  86 CALM      29.83S
$$

NEZ050>053-065>068-078-088>093-020600-
SOUTHEAST NEBRASKA

CITY           SKY/WX    TMP DP  RH WIND       PRES   REMARKS
LINCOLN        MOCLDY    64  60  87 N5        29.79F
OMAHA EPPLEY   MOCLDY    64  62  93 N3        29.79S
BEATRICE       MOCLDY    64  62  91 NE6       29.76F FOG
FALLS CITY     PTCLDY    66  65  96 E8        29.75F FOG
NEBRASKA CITY  MOCLDY    63  63 100 CALM      29.77F FOG
PLATTSMOUTH      N/A     62  60  93 CALM      29.78F FOG
$$

NEZ044-045-051>053-067-020600-
OMAHA AREA

CITY           SKY/WX    TMP DP  RH WIND       PRES   REMARKS
OMAHA EPPLEY   MOCLDY    64  62  93 N3        29.79S
BLAIR          MOCLDY    66  63  89 E3        29.80S
FREMONT        MOCLDY    65  63  91 W8        29.82R
MILLARD        PTCLDY    63  62  96 CALM      29.78F FOG
OFFUTT AFB     PTCLDY    61  61 100 N3        29.78S
PLATTSMOUTH      N/A     62  60  93 CALM      29.78F FOG
WAHOO          FAIR      64  61  90 NW5       29.81R
$$



USA.gov is the U.S. government's official web portal to all federal, state and local government web resources and services.